DLH3EK ENGM-EDDF

Flight info

Callsign DLH3EK
Flight time N/A
Altitude 41000
Route VIPPA P615 ALS M852 POVEL DCT ALOSI DCT RIMET T157 KERAX KERAX5A
Aircraft A359/H-SDE2E3GHIJ3J4J5LM1ORWXY/LB1D1

Departure

Time 2026-05-04 16:51
Airport Oslo-Gardermoen International Airport (ENGM)

Arrival

Time N/A
Airport Frankfurt Main Airport (EDDF)
Time Latitude Longitude Altitude Speed Heading
2026-05-04 16:10 60.19387 11.10785 698 ft 0 kts 196°
2026-05-04 16:39 60.19391 11.10788 697 ft 3 kts 196°
2026-05-04 16:40 60.19436 11.10814 688 ft 3 kts 196°
2026-05-04 16:40 60.19473 11.10821 688 ft 3 kts 129°
2026-05-04 16:41 60.19490 11.10738 688 ft 3 kts 106°
2026-05-04 16:41 60.19496 11.10694 688 ft 0 kts 106°
2026-05-04 16:44 60.19495 11.10762 688 ft 6 kts 74°
2026-05-04 16:45 60.19538 11.10917 690 ft 9 kts 95°
2026-05-04 16:46 60.19519 11.11336 691 ft 10 kts 27°
2026-05-04 16:46 60.19663 11.11422 690 ft 16 kts 16°
2026-05-04 16:47 60.19910 11.11564 691 ft 21 kts 15°
2026-05-04 16:47 60.20088 11.11747 689 ft 8 kts 101°
2026-05-04 16:48 60.20061 11.11930 689 ft 0 kts 106°
2026-05-04 16:49 60.20060 11.11940 694 ft 2 kts 106°
2026-05-04 16:50 60.20046 11.12038 690 ft 3 kts 106°
2026-05-04 16:50 60.19995 11.12173 689 ft 8 kts 180°
2026-05-04 16:51 60.19445 11.11859 693 ft 102 kts 196°
2026-05-04 16:51 60.18564 11.11355 729 ft 158 kts 197°
2026-05-04 16:51 60.16600 11.10283 2283 ft 155 kts 205°
2026-05-04 16:52 60.14117 11.08729 2912 ft 217 kts 202°
2026-05-04 16:52 60.12586 11.08104 3579 ft 233 kts 193°
2026-05-04 16:53 60.09195 11.07342 5000 ft 256 kts 191°
2026-05-04 16:53 60.03981 11.05362 7991 ft 256 kts 205°
2026-05-04 16:54 60.02292 11.04131 8989 ft 261 kts 206°
2026-05-04 16:55 59.94774 10.98614 11317 ft 329 kts 205°
2026-05-04 16:55 59.90356 10.95443 12940 ft 344 kts 206°
2026-05-04 16:56 59.85812 10.92135 14715 ft 348 kts 209°